RSQA2 Weather Reports


time (UTC)temp
C
wind
direction
speed
KPH
gust
KPH
rain 1hr
cm
rain 24hr
cm
rain mn
cm
humidity
%
barometer
mb
20260507074319 3 203 0.0 0.0 0.00 0.13 0.03 67 1013.0
20260507072820 3 203 0.0 0.0 0.00 0.13 0.03 66 1012.9
20260507062817 3 203 0.0 3.2 0.00 0.18 0.03 58 1012.5
20260507052813 4 187 3.2 6.4 0.00 0.18 0.03 51 1011.9
20260507045817 5 187 1.6 4.8 0.00 0.18 0.03 48 1011.9
20260507044318 5 187 1.6 6.4 0.00 0.18 0.03 47 1011.9
20260507042821 5 187 0.0 6.4 0.00 0.18 0.03 46 1011.9
20260507041322 5 119 1.6 3.2 0.00 0.18 0.03 46 1011.7
20260507031315 5 275 1.6 6.4 0.00 0.18 0.03 47 1011.5
20260507025814 5 234 3.2 12.9 0.00 0.18 0.03 47 1011.6
20260507021311 6 276 3.2 9.7 0.00 0.23 0.03 44 1011.2
20260507015809 6 213 6.4 9.7 0.00 0.23 0.03 44 1011.2
20260507014313 7 241 1.6 8.0 0.00 0.23 0.03 46 1011.1
20260507004325 6 272 4.8 9.7 0.00 0.23 0.03 46 1011.2
20260507002809 6 277 6.4 9.7 0.00 0.23 0.03 44 1011.1
20260507001310 6 265 6.4 12.9 0.00 0.23 0.03 46 1011.0
20260506235811 7 279 4.8 8.0 0.00 0.23 0.03 50 1010.8
20260506234311 7 276 0.0 9.7 0.00 0.23 0.03 50 1010.7
20260506231320 7 275 0.0 9.7 0.03 0.23 0.03 49 1010.7
20260506225821 6 194 4.8 11.3 0.03 0.23 0.03 49 1010.8
20260506224321 6 232 8.0 11.3 0.03 0.23 0.03 54 1010.7
20260506222820 6 195 3.2 11.3 0.03 0.23 0.03 55 1010.8
20260506221325 6 204 4.8 11.3 0.00 0.20 0.00 55 1010.8
20260506214308 5 205 4.8 9.7 0.00 0.20 0.00 60 1010.8
20260506212808 5 271 0.0 9.7 0.00 0.20 0.00 61 1010.7
20260506205814 5 225 1.6 9.7 0.00 0.20 0.00 64 1010.7
20260506204320 3 194 3.2 8.0 0.00 0.20 0.00 69 1010.7
20260506202820 3 277 3.2 9.7 0.00 0.20 0.00 70 1010.7
20260506201324 3 176 0.0 6.4 0.00 0.20 0.00 74 1010.6
20260506195822 2 273 3.2 8.0 0.00 0.20 0.00 76 1010.6
20260506194326 2 204 1.6 8.0 0.00 0.20 0.00 78 1010.5
20260506191314 2 214 4.8 9.7 0.00 0.20 0.00 80 1010.2
20260506185813 2 188 4.8 11.3 0.00 0.20 0.00 83 1010.2
20260506182820 2 203 3.2 11.3 0.00 0.20 0.00 86 1010.0
20260506181320 1 194 1.6 11.3 0.00 0.20 0.00 88 1010.0
20260506174327 1 175 3.2 8.0 0.00 0.20 0.00 89 1009.8
20260506162823 1 225 0.0 6.4 0.00 0.20 0.00 89 1009.2
20260506155826 1 194 1.6 6.4 0.00 0.20 0.00 89 1008.9
20260506154310 1 284 0.0 4.8 0.00 0.20 0.00 89 1008.7
20260506151318 1 190 0.0 6.4 0.00 0.20 0.00 88 1008.5
20260506144324 1 192 3.2 6.4 0.00 0.20 0.00 88 1008.3
20260506142824 1 193 3.2 4.8 0.00 0.20 0.00 88 1008.2
20260506141309 1 260 0.0 4.8 0.00 0.20 0.00 89 1008.1
20260506135827 1 226 0.0 4.8 0.00 0.20 0.00 89 1007.9
20260506134312 2 261 1.6 4.8 0.00 0.20 0.00 89 1007.8
20260506132811 2 261 0.0 4.8 0.00 0.20 0.00 89 1007.5
20260506131311 2 236 1.6 4.8 0.00 0.20 0.00 89 1007.4
20260506125812 2 281 1.6 6.4 0.00 0.20 0.00 89 1007.4
20260506124312 2 263 0.0 6.4 0.00 0.20 0.00 89 1007.2
20260506121321 2 271 3.2 8.0 0.00 0.20 0.00 90 1006.8
20260506115823 2 271 0.0 8.0 0.00 0.20 0.00 90 1006.7
20260506114323 2 264 0.0 8.0 0.00 0.20 0.00 90 1006.4
20260506112826 3 249 1.6 8.0 0.00 0.20 0.00 90 1006.3
20260506111327 3 210 0.0 3.2 0.00 0.20 0.00 91 1006.0
20260506105808 3 270 0.0 3.2 0.00 0.20 0.00 90 1006.1
20260506102817 3 269 0.0 0.0 0.00 0.20 0.00 90 1005.7
20260506101318 3 269 0.0 0.0 0.00 0.20 0.00 90 1005.5
20260506095820 3 270 0.0 0.0 0.00 0.20 0.00 90 1005.1
20260506094320 3 270 0.0 0.0 0.00 0.20 0.00 90 1005.1
20260506091327 3 270 0.0 1.6 0.00 0.20 0.00 89 1004.7
20260506085825 3 269 0.0 1.6 0.00 0.20 0.00 89 1004.5
20260506084310 4 294 0.0 9.7 0.03 0.20 0.00 89 1004.3
20260506082809 4 284 0.0 0.0 0.08 0.20 0.00 89 1004.2
20260506081313 4 284 0.0 3.2 0.08 0.20 0.00 88 1004.0